[[{"header":{"parameterUnit":"m.s-1","parameterCategory":1,"la1":30.2992,"la2":30.254,"lo1":-89.0895,"lo2":-89.0443,"dy":0.0025,"dx":0.0025,"nx":19,"ny":19,"refTime":"2026-05-10T09:00:00:Z","depth":0,"parameterNumber":2,"parameterNumberName":"U-component_of_WINDS"},"data":[0,0,0,-1.9415,-1.9415,-1.9407,-1.9407,-1.9414,-1.9414,0,0,0,0,0,0,0,0,0,0,0,-1.9427,-1.9427,-1.9415,-1.9415,-1.9407,-1.9407,-1.9414,-1.9414,0,0,0,0,0,0,0,0,0,0,0,-1.9427,-1.9427,-1.9428,-1.9415,-1.9407,-1.9407,-1.9414,-1.9414,0,0,0,0,0,0,0,0,0,0,-1.9419,-1.9439,-1.9427,-1.9428,-1.9415,-1.9407,-1.9407,-1.9414,-1.9414,-1.9424,0,-1.9436,0,-1.9425,-1.9415,-1.9416,0,0,0,-1.9408,-1.9438,-1.9428,-1.9428,-1.9415,-1.9407,-1.9409,-1.9414,-1.9414,-1.9425,-1.9436,-1.9435,-1.9425,-1.9416,-1.9416,-1.9499,-1.95,0,0,-1.9409,-1.9431,-1.9428,-1.9429,-1.943,-1.9409,-1.9409,-1.9413,-1.9427,-1.9436,-1.9435,-1.9425,-1.9416,-1.9416,-1.9499,-1.95,0,0,0,-1.9415,-1.9431,-1.942,-1.9429,-1.9426,-1.9409,-1.9409,-1.9427,-1.9421,-1.9435,-1.9425,-1.9416,-1.9416,-1.9498,-1.9499,-1.9556,0,0,0,-1.9415,-1.9435,-1.9421,-1.9434,-1.9426,-1.9426,-1.9422,-1.9421,-1.9421,-1.9425,-1.9416,-1.9416,-1.9497,-1.9498,-1.9553,-1.9579,0,0,0,-1.9424,-1.9436,-1.9438,-1.9435,-1.9433,-1.9425,-1.942,-1.942,-1.9415,-1.9416,-1.9416,-1.9496,-1.9498,-1.955,-1.9574,-1.9608,0,0,0,-1.9441,-1.9488,-1.9439,-1.9488,-1.9433,-1.9461,-1.942,-1.9439,-1.9447,-1.9416,-1.9497,-1.9499,-1.9549,-1.9571,-1.9605,-1.964,-1.9657,0,0,-1.9513,-1.9498,-1.9525,-1.9481,-1.9523,-1.946,-1.9511,-1.9497,-1.9477,-1.9493,-1.9495,-1.9554,-1.9574,-1.9607,-1.9744,-1.9757,0,0,0,-1.9555,-1.9575,-1.9581,-1.9589,-1.958,-1.9574,-1.955,-1.9545,-1.9558,-1.949,-1.9574,-1.9586,-1.9605,-1.962,-1.9632,-1.9647,-1.9507,-1.9507,-1.9507,-1.9687,-1.966,-1.9703,-1.9675,-1.9684,-1.9659,-1.9664,-1.9653,-1.9622,-1.9643,-1.9647,-1.9733,-1.9753,-1.9761,-1.9777,-1.9664,-1.9664,-1.9664,-1.9664,-1.979,-1.9814,-1.9773,-1.9801,-1.9772,-1.9795,-1.9774,-1.9751,-1.9769,-1.9727,-1.9743,-1.9699,-1.9777,-1.979,-1.9668,-1.9668,-1.9667,-1.9667,-1.9667,-1.9874,-1.9881,-1.9874,-1.9884,-1.9895,-1.9865,-1.9884,-1.9857,-1.9832,-1.9847,-1.9849,-1.9848,-1.9844,-1.985,-1.985,-1.9851,-1.9851,-1.9851,-1.9851,-1.9963,-1.9954,-1.9973,-1.9969,-1.9971,-1.9971,-1.9948,-1.995,-1.9945,-1.9923,-1.9923,-1.9891,-1.979,-1.9765,-1.9856,-1.9855,-1.9854,-1.9854,-1.9854,-2.0077,-2.0048,-2.0077,-2.008,-2.0073,-2.0086,-2.0052,-2.0058,-2.0056,-2.0067,-2.0032,-1.9961,-1.9943,-1.9934,-1.9913,-2.0037,-2.0037,-2.0037,-2.0037,-2.0148,-2.0137,-2.0162,-2.0168,-2.0171,-2.0143,-2.0179,-2.0163,-2.0141,-2.0138,-2.0116,-2.0087,-2.0078,-2.0066,-2.0053,-2.0033,-2.0185,-2.0185,-2.0185,-2.0217,-2.0205,-2.024,-2.0218,-2.0211,-2.0206,-2.024,-2.0249,-2.0218,-2.0191,-2.0135,-2.0129,-2.0081,-2.0066,-2.0037,-2.0019,-1.9982,0,0]},{"header":{"parameterUnit":"m.s-1","parameterCategory":1,"la1":30.2992,"la2":30.254,"lo1":-89.0895,"lo2":-89.0443,"dy":0.0025,"dx":0.0025,"nx":19,"ny":19,"refTime":"2026-05-10T09:00:00:Z","depth":0,"parameterNumber":3,"parameterNumberName":"V-component_of_WINDS"},"data":[0,0,0,2.7043,2.7042,2.7023,2.7023,2.6988,2.6987,0,0,0,0,0,0,0,0,0,0,0,2.7045,2.7045,2.7043,2.7042,2.7023,2.7023,2.6988,2.6987,0,0,0,0,0,0,0,0,0,0,0,2.7045,2.7045,2.7044,2.7042,2.7023,2.7023,2.6988,2.7006,0,0,0,0,0,0,0,0,0,0,2.7026,2.7026,2.7045,2.7044,2.7042,2.7023,2.7023,2.7007,2.7004,2.6993,0,2.6985,0,2.6986,2.6985,2.6985,0,0,0,2.7044,2.7027,2.7025,2.7044,2.7042,2.7023,2.7032,2.7006,2.7003,2.6991,2.6984,2.6983,2.6985,2.6985,2.6984,2.692,2.692,0,0,2.7045,2.7039,2.7027,2.7024,2.7029,2.7033,2.7031,2.7004,2.6996,2.6984,2.6983,2.6985,2.6984,2.6984,2.692,2.692,0,0,0,2.7047,2.704,2.7039,2.7025,2.7022,2.7032,2.7031,2.6997,2.6998,2.6982,2.6984,2.6984,2.6984,2.6921,2.692,2.6896,0,0,0,2.7048,2.7041,2.7039,2.7035,2.7023,2.701,2.7024,2.6999,2.6997,2.6984,2.6984,2.6983,2.6921,2.692,2.6898,2.6886,0,0,0,2.7047,2.7041,2.7037,2.7035,2.7027,2.7011,2.7009,2.6999,2.6998,2.6985,2.6983,2.6922,2.6921,2.6899,2.6888,2.6867,0,0,0,2.7045,2.7015,2.7037,2.7004,2.7027,2.6997,2.701,2.6987,2.6973,2.6984,2.6921,2.692,2.69,2.6889,2.6869,2.6849,2.684,0,0,2.7004,2.701,2.6991,2.701,2.6975,2.7,2.6961,2.6953,2.6955,2.6931,2.6929,2.6897,2.6888,2.6867,2.6793,2.6787,0,0,0,2.6976,2.6962,2.6954,2.6942,2.6937,2.693,2.6929,2.6926,2.6906,2.6943,2.6885,2.6879,2.6867,2.6858,2.6852,2.6842,2.6916,2.6916,2.6916,2.6908,2.6916,2.6885,2.689,2.6877,2.6877,2.6867,2.6862,2.6871,2.6858,2.685,2.6805,2.6794,2.6789,2.6779,2.6841,2.684,2.684,2.684,2.6849,2.683,2.6845,2.6821,2.6828,2.6806,2.6804,2.6812,2.6791,2.6811,2.6801,2.6821,2.6782,2.6773,2.6839,2.6839,2.6839,2.6839,2.6839,2.6805,2.6798,2.6796,2.6779,2.6765,2.677,2.6751,2.6757,2.6763,2.6753,2.6745,2.6746,2.6747,2.6749,2.6749,2.6749,2.6749,2.6748,2.6748,2.6761,2.676,2.6744,2.6736,2.6729,2.672,2.6719,2.6712,2.6705,2.6711,2.6711,2.6721,2.6777,2.6791,2.6746,2.6746,2.6747,2.6747,2.6747,2.6697,2.6713,2.6688,2.6681,2.6672,2.6657,2.6667,2.6651,2.6645,2.6635,2.6648,2.6688,2.6694,2.6699,2.671,2.6647,2.6647,2.6647,2.6647,2.666,2.6665,2.6641,2.663,2.6619,2.6625,2.6595,2.6593,2.6594,2.659,2.66,2.6616,2.6621,2.6624,2.663,2.6641,2.6561,2.6561,2.6561,2.6621,2.6625,2.6599,2.6602,2.6596,2.6589,2.6561,2.6545,2.6548,2.6558,2.6588,2.6591,2.6617,2.6625,2.6634,2.6644,2.6664,0,0]}]]